METAR AND TAF INFORMATION
METAR FOR YARG
ADDS - METARS form results

(0638 UTC 24 April 2019)
Data provider http://aviationweather.gov/metar/data/
 
METAR text: YARG 240600Z AUTO 17009KT 9999 // NCD 35/07 Q1011
Conditions at: YARG (ARGYLE AERO , AU) observed 0600 UTC 24 April 2019
Temperature: 35.0°C (95°F)
Dewpoint: 7.0°C (45°F) [RH = 18%]
Pressure (altimeter): 29.85 inches Hg (1011.0 mb)
Winds: from the S (170 degrees) at 10 MPH (9 knots; 4.6 m/s)
Visibility: 6 or more miles (10+ km)
Ceiling: at least 12,000 feet AGL
Clouds: sky clear below 12,000 feet AGL
Weather: no significant weather observed at this time

 AIRPORT MAP

 RUNWAY INFORMATION
Runway 01 Runway length 7546 ft Runway width 98 ft
Runway elevation 522 ft Runway displaced threshold 0 ft Runway heading 21
Runway 19 Runway length 7546 ft Runway width 98 ft
Runway elevation 505 ft Runway displaced threshold 0 ft Runway heading 201

 AIRPORT FREQUENCIES
Type CTAF Name CTAF Frequency 127.3 MHZ
Type FSS Name BRISBANE C Frequency 122.4 MHZ

 AIRPORT NEAR NAVIGATION AIDS
Type VOR-DME Name Argyle Frequency 113900 KHZ